sat.trackr.live / text

‹ back to catalog

STARLINK-37139

NORAD 68317 · 2026-057Z

PAYLOAD ACTIVE UNKNOWN

§ Identity

Operator
Country
US
Launch date
2026-03-20
Launch site
AFWTR
Launch vehicle
Mass (kg)
RCS (m²)

Purposes: comms

External: N2YO · Heavens-Above · Gunter

§ Orbital elements

Epoch: 2026-05-24T21:19:31.613376Z

Period
91.42 min
Inclination
97.2860°
Eccentricity
0.0001194
Mean motion
15.75189338 rev/d
Perigee alt
343.3 km
Apogee alt
344.9 km
Semi-major
6,722.2 km
B*
1.9297e-3
RAAN
271.1681°
Arg perigee
66.8455°
Mean anomaly
293.2936°
Rev number
1,028

§ Raw data

STARLINK-371391 68317U 26057Z   26144.88856034  .00297959  00000+0  19297-2 0  99942 68317  97.2860 271.1681 0001194  66.8455 293.2936 15.75189338 10289

JSON: /api/v1/satellites/68317 · /tle

For live sub-satellite position, see the globe view (requires WebGL).

§ Visibility from observer

Set your observer location to see the next 7 days of passes ≥ 10°. The values pass through the URL so the page stays shareable.

No JS? Fill the form by hand. The geolocation button needs JavaScript.